GFSNIL_850_spd_000.txt.gz
Wind_Speed
28 34 38 40 39 33 31 32 30 28 19 17 17 16 8 5 7 12 15 23 24 26
37 41 44 41 35 26 27 29 22 16 11 7 9 10 19 18 17 27 23 22 16 17
42 44 44 40 25 21 25 19 9 7 7 12 15 17 22 24 18 16 13 13 14 16
43 45 41 25 16 14 11 7 6 8 11 16 18 15 12 12 12 14 17 19 21 25
42 36 26 19 7 6 5 6 7 14 12 8 13 18 19 19 20 22 23 25 27 27
34 29 20 10 10 9 9 9 11 13 15 16 16 21 22 24 25 26 27 28 28 27
26 24 13 9 10 10 8 14 17 19 16 18 22 22 26 29 29 29 27 26 26 27
20 20 16 13 12 14 18 22 18 20 16 19 23 28 30 29 26 26 28 30 32 34
16 16 14 12 14 17 21 22 23 21 20 25 28 29 26 25 25 28 31 34 37 39
7 13 20 22 23 23 23 22 21 24 27 27 25 23 23 25 28 33 36 38 36 34
18 16 18 20 23 24 25 25 25 25 25 25 25 25 28 31 34 35 34 32 31 30
18 20 23 25 24 23 24 25 26 24 25 26 28 30 31 30 31 32 30 28 24 23
21 22 23 23 24 24 25 24 24 26 27 29 29 28 28 27 29 30 28 24 25 21
21 21 22 23 23 23 24 26 27 28 27 26 26 28 25 25 24 22 25 27 25 23

GFSNIL_850_spd_003.txt.gz
Wind_Speed
27 31 38 41 40 39 35 30 25 23 18 14 10 4 5 8 9 9 13 14 18 16
29 35 39 40 37 31 24 20 17 14 9 6 5 6 8 14 17 24 18 16 20 21
32 35 38 34 28 21 17 10 8 9 7 3 3 4 7 11 13 12 11 12 11 10
34 35 30 27 21 15 10 9 8 9 11 12 17 20 15 12 13 17 16 16 16 17
29 26 26 21 18 10 10 7 9 14 19 23 20 14 16 18 18 19 21 21 22 22
26 25 21 19 14 11 12 14 17 21 22 20 17 17 19 19 22 25 26 25 23 21
23 21 19 16 15 15 14 18 21 17 18 22 21 20 21 25 29 28 25 23 23 24
21 17 15 12 14 19 20 22 22 23 24 24 23 24 28 30 27 24 24 25 28 30
18 17 16 16 19 22 23 23 23 22 23 26 26 25 24 23 23 24 26 28 31 31
16 17 17 20 24 26 25 24 23 22 23 24 23 22 21 22 25 27 30 30 27 27
19 20 22 24 24 24 24 25 26 24 22 23 23 24 25 26 27 27 27 27 27 23
20 22 22 23 24 25 26 25 24 24 25 25 25 24 25 26 24 23 24 25 20 18
21 21 22 22 24 25 25 25 25 26 25 25 25 26 25 23 20 22 21 20 19 20
19 20 21 23 25 26 26 26 26 28 27 25 24 25 23 20 18 18 20 20 20 18

GFSNIL_850_spd_006.txt.gz
Wind_Speed
19 20 23 25 31 32 29 27 25 14 11 11 11 11 10 9 6 7 8 11 17 22
22 25 31 35 33 24 25 19 15 13 11 7 5 4 5 7 11 6 9 11 11 11
26 27 30 27 23 20 16 13 11 8 7 7 8 10 14 22 20 13 15 13 10 12
21 20 20 19 17 15 14 12 10 10 11 12 17 26 25 14 11 11 11 12 14 16
17 17 17 17 15 13 13 11 11 13 18 24 18 15 14 14 15 15 16 16 17 18
16 18 16 16 17 15 16 16 18 18 18 16 17 18 17 16 16 19 20 20 19 18
17 15 16 18 15 16 15 16 17 20 20 19 19 19 19 18 20 20 20 17 16 17
10 11 14 15 15 15 16 18 18 18 18 18 19 19 21 18 18 20 20 20 20 20
11 13 14 14 17 18 18 17 17 18 18 19 18 21 22 22 19 20 22 24 23 23
13 13 14 16 17 17 18 18 19 19 18 18 17 23 26 27 25 23 23 24 24 24
13 13 15 16 17 18 19 20 19 19 18 20 20 25 28 27 25 21 23 23 23 24
13 13 15 16 17 19 20 20 19 19 20 22 22 23 26 26 22 21 23 22 21 21
13 13 15 16 18 20 21 21 19 20 20 22 21 21 24 20 20 21 21 21 20 20
13 13 14 17 19 22 23 21 21 23 24 20 21 23 23 22 19 19 21 20 20 18

GFSNIL_850_spd_009.txt.gz
Wind_Speed
17 16 17 18 21 22 22 23 20 19 19 19 20 19 16 11 13 16 19 23 19 17
15 16 17 19 20 21 22 22 21 21 20 16 14 13 14 14 19 20 22 21 14 14
17 17 18 20 21 22 21 21 20 19 17 15 17 20 24 24 22 20 16 14 12 13
17 17 18 20 20 19 22 19 20 17 20 22 25 28 21 17 18 18 17 16 17 18
18 20 21 19 22 20 18 18 19 20 22 21 19 19 19 20 17 18 19 19 20 21
19 19 18 17 18 17 17 18 19 21 22 23 23 23 22 21 22 20 21 22 24 24
18 16 16 15 15 17 18 19 20 20 21 21 21 22 22 18 19 22 23 24 24 24
17 16 16 15 17 18 19 19 19 19 20 20 21 22 21 23 23 22 23 24 25 26
18 16 15 16 17 18 18 19 19 20 21 21 21 24 28 30 30 26 25 25 25 26
17 17 16 16 18 18 19 19 21 21 21 21 21 25 29 34 33 26 25 25 26 26
17 19 17 18 18 19 19 21 22 21 20 21 22 26 32 34 31 24 24 24 25 26
20 17 17 18 19 19 21 22 22 19 21 23 24 25 29 31 26 22 24 23 23 23
17 17 16 18 19 20 22 22 21 20 23 24 25 24 28 26 26 25 23 22 23 23
17 15 15 17 19 22 23 22 19 26 26 23 21 24 22 24 23 23 26 24 24 22

GFSNIL_850_spd_012.txt.gz
Wind_Speed
13 14 15 17 23 20 20 22 19 20 22 20 21 19 22 24 25 26 26 28 23 26
14 16 19 20 20 22 17 18 21 24 21 24 28 26 23 25 27 31 30 26 24 18
19 18 18 19 19 18 23 29 23 21 23 21 22 21 25 29 27 18 21 22 21 18
16 17 17 16 19 24 30 24 22 23 26 25 26 25 24 25 25 23 23 22 22 22
18 17 17 20 23 24 21 21 20 21 23 24 22 22 23 24 24 25 23 22 23 26
19 20 20 20 19 19 19 20 21 23 23 24 23 23 23 23 20 20 22 23 26 24
20 18 16 16 20 18 20 22 22 22 22 22 23 24 24 22 25 29 33 36 30 30
23 18 14 16 17 19 20 21 20 22 23 24 24 23 25 30 32 33 35 37 33 27
23 17 13 20 14 16 20 20 22 22 24 23 21 24 29 32 33 34 36 39 34 25
24 21 15 16 11 14 19 21 23 25 22 19 19 24 32 35 36 36 37 30 27 29
19 11 15 15 10 14 18 22 24 22 21 22 29 33 30 32 31 35 32 27 27 27
19 13 16 13 11 13 21 23 20 21 23 28 32 32 28 27 33 29 31 30 24 24
22 13 15 11 12 17 20 18 24 28 28 32 30 25 26 29 27 28 31 30 28 26
18 13 11 9 16 18 19 20 22 26 28 27 23 24 24 27 24 25 30 29 27 23

GFSNIL_850_spd_015.txt.gz
Wind_Speed
16 18 19 20 23 20 20 18 19 21 29 22 24 25 25 22 22 25 28 29 29 26
17 19 18 20 15 17 16 19 26 31 24 25 29 27 27 28 27 25 23 21 22 22
21 17 17 13 14 16 21 29 31 23 21 23 23 24 23 23 22 22 21 21 20 22
24 19 19 23 26 26 31 27 20 17 17 22 22 22 24 24 24 23 23 19 18 19
24 25 26 27 25 28 25 19 15 17 23 22 22 24 23 24 25 26 25 24 26 26
19 25 25 27 26 19 20 21 19 20 21 21 24 26 26 26 26 25 29 32 34 34
37 26 20 19 15 16 22 19 18 18 19 23 24 24 23 26 30 34 37 35 35 36
26 20 23 34 25 21 16 15 13 17 21 20 22 25 27 30 33 36 40 39 38 38
28 29 33 26 19 13 13 14 16 20 19 19 21 26 29 31 35 36 32 31 35 33
33 37 30 20 13 15 15 13 19 18 18 19 27 26 28 34 31 29 30 32 31 32
37 37 29 19 17 10 12 18 16 15 20 25 23 27 29 28 29 31 30 28 29 30
35 28 24 19 15 17 16 17 13 21 24 25 27 26 28 29 31 28 29 27 30 27
32 25 25 16 8 12 15 12 19 21 23 26 27 28 26 27 25 24 27 33 34 24
27 22 17 10 11 11 15 16 18 21 25 26 28 26 28 26 24 28 32 30 26 22

GFSNIL_850_spd_018.txt.gz
Wind_Speed
18 21 23 21 27 28 27 23 18 21 26 23 21 20 19 19 20 19 17 18 18 21
25 28 27 32 30 30 25 19 20 23 23 21 19 20 19 18 19 20 17 18 20 19
26 26 31 26 25 26 23 22 21 27 23 17 16 20 19 20 21 19 21 20 19 16
27 27 28 25 25 26 24 22 21 25 21 21 25 22 22 23 23 24 23 23 24 26
26 29 29 30 34 32 27 19 20 20 20 23 23 23 25 26 25 24 26 26 30 34
24 27 29 30 29 13 16 30 13 19 24 21 20 25 24 27 24 25 28 29 33 37
30 25 23 25 25 31 35 24 11 17 15 19 21 22 25 25 27 28 31 33 35 29
32 27 30 29 29 31 23 16 12 11 16 20 20 20 24 28 28 32 34 29 27 29
31 31 33 35 26 17 17 6 13 14 17 19 17 25 24 28 32 30 28 29 30 28
30 33 38 27 24 19 17 6 11 15 17 17 24 22 27 28 28 28 29 28 28 28
32 36 32 21 23 16 5 13 12 11 17 23 22 25 27 29 29 29 30 26 27 29
32 33 26 18 10 7 9 11 7 18 20 22 25 26 27 29 29 27 27 28 28 23
31 24 17 14 9 7 11 9 15 14 18 22 24 25 26 25 28 28 26 25 23 20
22 17 10 11 10 9 9 8 11 16 20 22 23 25 26 27 21 21 22 23 20 17

GFSNIL_850_spd_024.txt.gz
Wind_Speed
11 13 13 15 18 21 22 24 24 23 21 24 30 30 20 16 18 18 18 18 18 20
11 13 16 18 20 22 22 24 24 24 27 29 32 20 16 16 17 16 16 18 18 18
15 18 18 19 24 23 20 21 24 28 29 29 25 16 16 18 15 17 20 20 21 23
14 16 21 25 22 17 18 22 26 28 26 27 24 17 17 15 18 22 23 23 27 28
16 22 22 20 19 21 27 26 23 24 24 29 25 14 18 13 20 23 23 27 31 31
22 21 21 24 26 29 31 26 22 20 26 21 10 14 12 18 20 22 26 31 32 35
21 21 24 26 29 33 29 22 19 22 23 15 13 12 18 18 20 27 30 32 33 34
17 20 26 30 32 32 24 20 18 20 18 11 14 17 14 19 25 29 32 33 34 33
19 25 28 31 32 26 22 20 18 16 10 12 13 15 19 22 28 30 30 32 33 32
23 27 30 29 26 21 20 12 6 10 13 11 14 19 22 27 28 28 29 31 27 24
25 28 28 24 23 18 15 12 13 13 9 14 17 22 25 26 25 27 27 25 22 22
26 27 25 25 20 15 14 15 13 10 12 16 21 23 23 23 24 25 24 22 20 20
26 25 24 23 16 14 13 13 12 12 15 20 21 20 20 21 23 24 24 23 21 20
24 23 23 19 13 12 11 11 12 15 18 19 19 18 18 21 21 22 24 23 24 20

GFSNIL_850_spd_027.txt.gz
Wind_Speed
8 10 11 13 16 17 19 21 22 22 22 22 24 23 24 21 15 15 15 16 17 17
7 9 11 13 16 21 23 21 20 20 23 24 25 24 24 22 15 16 16 18 20 20
8 10 14 19 23 23 20 20 22 25 25 26 27 27 22 27 17 14 18 20 22 22
10 14 20 23 21 20 21 24 26 24 24 23 24 24 28 15 12 17 19 21 23 25
15 20 22 20 20 22 26 28 26 23 19 17 21 27 17 11 14 17 20 21 25 29
20 20 17 16 21 27 30 29 24 20 17 21 23 12 11 11 17 20 20 26 29 31
17 15 15 21 27 30 29 25 22 19 17 17 14 9 12 16 16 19 25 29 31 31
16 15 20 26 29 28 24 22 21 16 13 11 9 13 11 15 20 25 28 28 29 30
15 18 24 27 26 24 22 20 15 9 8 9 13 11 16 19 24 27 27 28 29 26
17 21 24 24 23 23 20 16 12 11 12 11 10 15 19 25 26 25 25 26 25 22
19 21 23 23 22 20 16 14 14 15 13 11 14 18 24 25 23 23 24 24 22 18
20 21 23 23 22 18 14 14 14 13 12 14 17 23 23 22 22 22 23 22 18 17
20 22 23 22 20 15 13 14 15 14 14 16 20 21 20 20 21 21 21 20 19 20
22 22 21 21 18 14 13 13 13 14 15 18 20 20 18 18 19 18 19 19 21 19

GFSNIL_850_spd_030.txt.gz
Wind_Speed
6 3 5 7 10 12 14 17 17 17 17 18 18 19 20 20 20 17 17 14 15 16
6 7 6 10 12 11 13 14 16 17 19 20 20 20 21 21 21 19 16 15 15 16
6 7 10 11 9 11 12 15 18 21 21 21 21 21 20 22 21 18 15 16 17 18
5 9 9 8 10 11 15 18 20 21 20 19 19 18 19 20 17 14 15 16 18 19
9 9 9 10 11 13 17 19 20 19 18 16 16 17 18 17 11 13 15 17 18 21
8 10 10 11 13 16 19 19 17 17 16 16 16 15 12 8 10 12 13 16 20 23
10 11 11 12 15 18 18 17 16 16 15 12 10 8 7 9 8 13 16 19 20 19
11 11 11 13 16 17 16 15 15 14 12 10 8 7 7 8 13 16 18 17 17 18
11 10 12 15 17 15 15 14 14 11 9 8 7 13 11 15 16 17 16 17 17 17
11 12 13 15 14 14 14 14 13 11 11 10 9 12 15 19 21 15 14 15 17 17
12 12 14 14 14 14 14 13 13 12 11 10 11 14 18 22 18 14 14 15 15 16
12 14 14 14 14 15 13 13 13 13 12 11 10 17 21 21 17 13 15 14 14 16
14 15 16 16 14 14 11 12 12 12 12 13 14 20 20 18 15 14 14 14 15 17
15 16 16 15 15 14 12 13 12 16 15 15 17 16 20 18 16 13 14 14 14 14

GFSNIL_850_spd_033.txt.gz
Wind_Speed
6 5 4 6 7 7 9 11 13 14 15 17 18 19 21 22 22 23 22 19 16 19
5 5 7 6 6 7 9 10 12 15 17 19 20 21 21 23 23 25 24 19 17 17
6 5 6 6 7 7 8 11 13 16 17 18 19 19 20 21 23 20 20 15 13 16
5 8 7 7 7 8 10 12 15 16 17 17 18 17 17 19 20 19 15 14 15 15
9 8 9 9 9 10 12 14 16 16 16 17 17 18 19 18 14 12 13 14 14 16
10 10 10 11 11 12 14 16 16 15 16 17 17 16 12 11 10 12 10 13 15 19
12 11 12 12 12 13 15 16 15 15 16 16 14 13 10 8 9 9 13 16 18 19
12 11 12 13 13 14 15 15 15 16 15 14 12 10 9 9 11 13 16 18 17 16
11 11 12 13 14 15 15 15 15 15 14 13 12 17 14 12 15 15 16 16 16 16
11 11 12 13 15 15 15 16 16 16 15 14 13 18 16 15 17 16 13 14 15 16
11 11 12 14 16 16 15 17 16 15 14 13 14 19 18 17 20 12 13 14 15 15
11 13 14 15 17 17 17 17 16 15 14 13 14 18 21 19 18 12 13 13 14 15
13 14 15 16 17 17 16 17 16 15 13 13 12 19 22 18 17 14 13 13 12 16
12 15 16 17 17 16 16 17 16 21 16 14 15 15 20 21 18 14 13 13 12 10

GFSNIL_850_spd_039.txt.gz
Wind_Speed
23 22 22 21 20 19 19 21 18 24 24 24 22 22 22 22 21 20 20 19 21 25
28 26 23 20 18 17 17 18 19 19 18 20 21 20 18 16 16 18 20 22 25 25
25 22 19 17 13 15 12 16 18 19 17 18 19 17 17 19 20 22 23 24 18 12
23 20 17 13 11 10 12 19 19 19 18 19 16 15 20 23 28 22 17 16 15 16
21 15 14 9 9 11 16 20 21 19 20 19 16 17 22 25 24 19 19 17 16 14
19 15 10 16 14 12 18 18 19 21 23 18 18 20 23 22 19 18 14 11 11 13
14 12 15 9 10 18 16 17 22 25 24 18 20 22 23 24 19 18 16 16 16 19
15 14 13 18 14 15 26 22 23 24 20 20 23 25 26 22 17 18 19 20 20 19
16 13 6 9 14 16 16 22 22 23 23 25 24 25 26 23 20 20 21 20 20 17
8 11 14 14 13 15 19 22 23 25 25 23 24 25 27 24 22 20 20 19 19 17
7 4 4 7 10 17 19 22 24 22 24 28 26 24 25 24 22 21 21 20 20 19
7 3 6 14 14 22 24 22 26 27 27 27 24 22 23 23 24 20 20 21 18 18
3 7 9 15 19 17 23 26 27 29 25 23 25 25 25 28 24 23 21 21 21 19
9 7 13 16 19 20 24 28 27 21 22 25 27 27 26 25 24 23 22 20 17 18

GFSNIL_850_spd_042.txt.gz
Wind_Speed
28 25 24 23 25 24 21 18 17 15 18 18 19 19 21 23 21 19 20 21 21 21
29 25 23 23 23 21 17 14 16 14 15 18 24 23 22 21 20 21 23 26 28 27
22 24 23 21 19 20 18 21 14 18 14 20 20 21 22 19 20 24 27 26 21 17
26 24 22 20 19 18 14 18 20 17 17 20 22 22 22 22 23 25 28 21 16 16
28 27 25 21 19 20 25 22 13 19 18 21 23 25 24 22 24 25 26 20 19 17
28 25 23 22 24 17 16 9 18 18 18 22 24 24 21 23 26 25 23 21 19 19
27 23 24 23 22 18 9 12 13 18 19 23 26 21 20 23 26 26 23 20 20 21
22 20 18 17 12 12 8 7 14 14 20 23 23 23 22 25 27 25 22 22 22 23
24 21 19 17 9 6 5 4 13 24 20 23 26 26 26 24 25 25 21 23 23 23
18 16 10 6 6 6 6 16 23 16 23 24 25 25 25 23 23 24 25 23 24 23
15 11 10 6 6 19 19 15 19 23 23 22 27 27 25 23 23 25 26 25 26 21
15 3 11 21 20 11 16 20 17 19 24 27 28 27 23 22 25 26 24 24 23 21
12 24 15 8 13 16 16 18 19 23 26 30 25 23 24 23 26 26 24 21 22 21
16 6 9 13 16 17 19 22 24 25 23 23 24 25 25 25 26 24 22 21 22 21

GFSNIL_850_spd_045.txt.gz
Wind_Speed
28 25 22 23 25 27 28 29 29 24 23 18 19 16 17 18 22 22 19 18 19 22
29 27 28 29 29 28 29 27 21 19 19 23 19 23 14 16 18 17 16 19 22 22
29 28 31 29 27 31 32 27 27 26 22 25 17 10 14 17 17 17 19 21 25 20
29 31 30 28 30 31 31 32 28 25 17 14 9 12 16 19 18 19 20 22 24 20
28 27 27 30 30 30 29 23 20 15 12 10 11 14 18 18 18 19 20 22 23 19
30 29 29 28 25 22 20 15 10 11 8 9 14 18 18 20 19 21 23 23 21 19
28 28 24 23 22 20 15 12 10 6 9 10 18 22 21 20 21 22 23 25 23 21
28 24 22 21 14 11 10 9 9 6 12 18 24 20 20 20 22 22 24 23 24 22
24 21 19 18 18 17 14 7 15 23 23 21 19 20 21 22 24 23 23 23 24 24
23 22 20 18 11 3 13 22 21 15 19 20 21 21 20 22 23 24 22 24 26 25
26 23 14 2 14 19 15 12 12 16 22 22 20 22 22 23 24 22 21 25 29 23
12 3 7 20 21 10 10 14 17 19 20 22 25 25 26 21 21 21 23 24 25 23
4 16 25 11 7 12 16 18 20 22 22 24 26 25 25 22 23 23 26 25 26 25
17 9 7 9 14 18 20 21 23 24 25 27 27 28 26 23 23 25 28 26 25 25

GFSNIL_850_spd_048.txt.gz
Wind_Speed
41 35 29 26 22 20 23 27 27 26 30 29 25 28 22 25 18 15 17 15 16 18
36 36 30 25 24 24 27 30 30 28 33 30 27 22 21 13 12 13 14 15 16 18
34 35 28 25 26 28 28 33 35 29 29 24 17 13 10 9 11 14 16 16 17 19
31 28 25 24 26 27 28 32 30 25 18 16 11 8 8 10 15 17 15 16 17 18
25 25 25 28 26 27 27 26 26 17 14 10 10 8 8 19 13 15 15 16 16 18
26 26 23 22 22 20 22 19 13 11 14 16 5 13 19 14 18 15 16 16 19 20
25 21 20 20 20 19 18 14 19 16 8 13 20 17 16 19 16 17 20 19 21 22
21 21 20 19 18 19 20 17 12 16 15 23 21 16 15 16 20 21 22 23 22 24
20 19 20 19 19 18 15 14 15 21 26 23 15 14 17 21 23 22 24 24 24 25
18 19 16 14 14 11 7 11 23 23 17 14 16 19 22 23 25 25 25 25 24 25
17 17 16 9 3 14 20 26 15 11 13 19 21 21 23 25 27 28 28 26 24 25
15 10 4 7 17 24 15 10 13 16 19 22 25 25 25 25 25 27 26 25 24 25
4 5 15 18 7 9 13 16 19 21 23 25 27 26 26 27 28 30 29 27 25 24
11 10 7 9 12 15 17 20 22 25 26 27 27 28 28 29 29 29 28 27 27 28

GFSNIL_850_spd_051.txt.gz
Wind_Speed
27 34 35 37 29 25 27 23 25 29 28 24 22 24 22 16 19 15 12 11 13 15
30 32 33 35 34 28 29 28 27 27 30 27 27 21 18 15 12 8 8 15 16 15
33 32 34 33 31 29 29 27 26 33 33 26 16 14 12 7 5 9 17 18 14 13
28 31 33 30 27 27 26 30 33 31 28 23 16 14 8 9 18 16 14 14 14 15
23 20 23 25 20 24 24 26 27 28 22 20 18 19 18 21 14 12 14 13 15 16
21 21 21 20 17 15 16 20 25 22 20 17 17 17 18 17 13 15 15 15 17 17
19 17 13 12 11 14 16 17 19 22 21 19 17 18 20 19 17 18 18 19 21 20
10 9 9 10 12 13 16 19 19 17 15 16 18 23 20 17 19 18 21 24 24 24
6 8 10 11 13 15 18 19 15 12 15 20 26 19 13 15 19 24 27 27 28 27
7 9 10 11 12 12 7 7 10 16 20 23 15 14 17 21 26 27 28 31 30 31
11 12 12 10 8 3 6 13 19 13 10 14 17 19 21 23 27 30 32 31 30 30
14 11 10 6 7 13 13 8 10 13 16 19 22 23 24 26 30 32 32 32 31 30
6 5 9 11 8 7 9 13 15 17 19 22 25 25 26 27 30 34 35 34 33 30
6 6 5 5 8 11 14 17 20 23 24 26 28 31 31 31 31 33 35 34 34 32

GFSNIL_850_spd_054.txt.gz
Wind_Speed
27 28 29 29 27 30 31 29 24 26 27 30 29 26 29 25 22 19 17 10 12 9
26 27 28 27 26 25 26 29 24 29 27 24 32 34 31 24 18 14 8 10 14 12
22 21 23 24 24 22 23 24 26 26 22 27 35 32 26 23 21 16 15 15 15 13
16 15 18 21 21 18 20 20 22 19 30 32 32 27 18 19 18 18 15 15 14 15
16 16 17 16 18 18 17 18 20 27 29 28 25 23 24 16 16 16 15 16 17 17
15 17 17 16 14 13 14 15 16 19 24 24 24 20 13 15 17 16 18 19 18 18
14 13 10 9 9 10 11 13 16 18 20 23 19 13 17 16 17 19 19 20 20 21
5 4 5 6 8 10 11 11 14 18 17 10 14 16 19 20 25 19 21 20 21 23
5 5 6 8 7 9 10 12 10 10 10 14 18 21 21 20 18 20 20 23 25 26
8 8 9 8 8 8 7 8 10 11 15 18 19 18 15 17 23 23 23 25 26 28
11 11 9 7 6 4 5 7 11 13 10 9 11 17 18 21 26 26 26 28 29 30
10 7 4 1 2 6 6 3 4 6 9 11 13 20 22 25 28 27 29 29 30 31
9 5 2 3 2 2 2 5 8 10 13 17 20 20 25 28 31 34 31 31 32 33
4 3 1 1 1 4 6 9 13 16 18 20 20 22 25 25 25 27 31 33 35 33

GFSNIL_850_spd_060.txt.gz
Wind_Speed
26 30 31 26 31 28 29 26 23 18 20 20 25 26 28 29 25 24 27 28 23 24
35 27 34 34 28 27 24 25 23 21 23 22 28 28 26 22 19 25 32 30 24 21
30 37 32 31 27 24 26 28 25 21 22 19 24 25 22 22 27 27 26 22 19 15
33 32 31 24 26 24 26 24 23 19 18 19 20 19 21 27 26 23 18 17 15 14
30 29 26 24 22 18 18 18 19 17 18 18 20 24 25 23 18 14 12 13 14 12
26 21 20 20 18 17 16 18 19 18 17 20 20 18 18 16 12 11 12 13 13 15
21 18 20 19 19 16 17 17 14 14 14 13 12 12 11 10 9 13 15 16 18 19
16 16 15 13 12 11 10 10 10 8 7 8 8 7 6 9 11 14 16 18 15 15
14 13 13 12 11 10 10 8 6 5 6 6 6 7 8 9 13 15 15 14 17 19
15 14 13 13 11 11 11 8 6 5 4 4 4 7 6 6 10 13 16 18 20 22
18 17 17 16 16 12 8 6 5 4 3 4 0 5 10 12 14 17 19 21 22 25
21 19 18 15 11 11 9 7 9 7 7 6 7 9 13 18 20 21 23 25 26 28
17 16 17 14 9 11 11 12 11 9 9 9 10 12 17 19 22 23 24 24 26 28
19 17 15 15 13 13 14 12 12 11 9 10 13 17 18 19 20 21 23 27 29 30

GFSNIL_850_spd_066.txt.gz
Wind_Speed
38 38 39 37 36 36 35 31 26 26 29 27 28 35 31 32 32 29 28 29 28 18
43 44 42 40 41 41 38 33 30 28 31 31 31 19 21 20 21 22 24 25 16 17
42 43 42 43 44 42 41 33 29 31 31 29 28 19 18 19 17 24 25 22 18 19
44 42 42 41 46 36 34 24 27 33 32 34 25 20 20 22 20 22 22 22 21 21
39 39 41 44 34 27 24 37 35 32 35 31 22 23 22 23 23 20 23 24 20 18
38 39 36 39 39 38 28 35 35 34 27 27 24 23 23 22 19 20 22 19 16 14
36 40 44 47 44 38 34 29 26 27 24 25 23 23 24 23 20 20 19 16 13 10
39 36 44 47 41 34 26 27 26 26 25 24 23 23 22 21 19 18 16 13 11 11
33 29 36 32 34 33 28 27 25 25 23 23 21 20 18 17 17 17 16 17 17 17
33 34 32 30 29 28 27 25 24 22 20 20 20 19 20 20 18 18 18 17 15 15
31 31 31 29 28 26 24 23 22 22 22 22 22 21 21 20 18 16 15 13 14 16
31 31 29 27 26 25 26 25 25 24 24 22 21 21 20 18 15 13 12 14 16 16
29 28 27 28 27 26 26 26 24 23 21 19 19 20 18 15 13 12 13 14 15 15
28 27 26 25 25 26 26 23 22 20 19 19 17 16 15 15 14 13 13 13 12 13

GFSNIL_850_spd_072.txt.gz
Wind_Speed
37 39 41 47 46 46 43 41 44 43 40 37 33 33 34 35 36 35 36 36 33 30
40 40 42 41 42 46 47 45 45 44 43 39 35 38 36 34 34 36 37 30 30 29
42 42 42 42 42 40 37 38 39 40 40 38 38 38 38 33 29 35 41 38 27 25
41 41 40 40 39 39 38 37 35 35 36 36 37 40 40 34 36 33 31 29 24 23
37 39 37 40 38 37 39 37 34 35 38 41 40 42 34 38 35 32 29 29 26 23
40 39 39 46 41 44 41 37 33 35 34 34 26 20 28 33 32 30 34 28 28 27
45 42 46 42 42 45 43 40 38 42 42 40 31 30 35 32 32 30 33 30 26 27
44 43 46 47 47 46 40 33 42 43 39 39 35 34 32 30 32 31 33 29 25 25
42 45 46 48 48 49 48 43 38 41 42 38 34 33 30 29 31 27 29 29 27 25
32 36 42 45 46 46 44 39 41 39 40 40 37 32 25 24 27 27 27 27 25 24
31 34 36 36 37 39 42 41 42 38 37 35 28 26 28 29 28 25 25 24 23 22
30 31 32 33 34 37 36 38 34 32 29 29 28 31 30 27 25 24 23 22 21 20
30 31 30 32 34 35 32 31 27 29 29 28 27 24 23 22 22 22 21 19 19 19
22 20 21 19 20 24 28 29 29 28 26 23 21 22 22 21 20 18 18 19 18 17

GFSNIL_850_spd_075.txt.gz
Wind_Speed
37 40 43 43 44 44 46 44 41 37 34 32 32 33 35 33 30 30 29 29 30 30
41 42 45 45 45 45 47 48 45 44 41 40 40 38 37 37 36 32 28 28 31 34
39 42 43 45 49 51 52 52 48 47 46 44 44 44 43 41 41 36 34 28 22 24
38 40 42 43 44 46 47 49 49 49 50 46 41 40 39 41 41 40 33 28 33 36
40 40 39 38 37 39 40 40 41 39 35 34 35 36 46 44 47 48 37 31 34 27
42 43 44 44 44 43 41 40 40 36 36 34 38 39 38 33 33 36 29 32 27 26
41 41 42 42 47 47 43 41 39 39 38 39 42 39 34 30 25 24 25 26 27 29
42 41 42 41 43 45 42 46 43 39 39 41 44 38 36 35 28 29 35 35 33 30
36 40 42 41 42 42 42 42 40 40 38 32 43 46 37 30 33 33 34 33 31 32
30 34 37 39 40 42 41 40 42 40 39 35 35 37 33 34 32 34 34 33 30 32
28 30 32 35 36 38 38 39 40 37 34 31 33 37 36 36 36 34 29 29 29 27
27 28 30 30 30 31 29 28 29 31 31 31 31 34 35 34 32 28 28 28 26 24
29 28 27 25 21 20 22 25 26 27 29 31 32 31 30 30 29 30 29 26 23 22
25 23 20 17 18 21 23 24 26 26 27 26 25 27 26 23 25 25 24 21 20 18

GFSNIL_850_spd_078.txt.gz
Wind_Speed
34 33 32 35 41 49 56 52 48 48 41 43 38 37 37 33 29 24 25 24 23 25
34 36 35 34 37 46 45 48 48 43 43 44 40 37 37 33 29 23 24 24 26 27
33 36 36 37 42 44 46 45 47 44 43 42 42 41 36 32 30 29 29 33 35 33
36 38 38 44 43 44 42 41 40 40 39 39 38 36 35 34 33 34 41 40 37 35
38 37 42 48 51 52 51 46 43 42 41 41 41 40 40 40 48 42 43 48 52 45
41 40 42 45 44 41 41 43 42 41 45 46 45 42 43 52 43 39 38 41 48 48
42 44 43 42 41 41 40 40 40 41 44 43 42 39 43 40 38 37 38 33 27 21
41 39 39 39 41 42 41 39 39 41 42 41 38 40 42 41 39 39 39 35 34 31
38 40 41 40 39 39 42 41 37 39 39 40 40 41 40 44 43 43 37 36 36 35
34 36 37 37 37 37 37 35 37 39 41 39 39 45 39 39 39 43 43 38 38 39
32 32 30 30 33 33 33 35 34 33 32 33 40 40 35 36 39 37 39 39 38 36
32 31 30 30 29 27 28 29 27 32 32 31 31 27 29 32 35 37 39 37 35 33
28 28 28 26 25 30 27 26 24 25 26 27 29 31 31 31 31 35 36 35 32 29
27 29 29 28 26 25 23 21 24 25 26 26 26 28 30 32 32 33 33 31 30 28

GFSNIL_850_spd_081.txt.gz
Wind_Speed
34 34 40 51 53 53 56 55 50 47 42 37 36 39 39 33 29 29 25 26 26 26
35 33 35 38 57 53 55 55 53 50 53 52 49 46 44 38 35 36 32 31 28 27
33 35 34 33 47 56 57 55 51 57 55 55 48 46 46 43 38 42 40 36 34 31
33 36 34 34 35 43 44 50 48 48 57 54 50 49 48 50 44 40 37 35 34 34
32 32 35 40 41 43 43 43 46 44 43 49 51 50 47 48 42 38 39 39 36 42
38 39 39 40 43 41 44 43 43 44 44 46 47 44 43 43 42 42 42 42 43 45
40 42 41 40 39 42 41 43 42 43 43 44 43 43 44 44 44 46 46 47 49 47
41 39 36 39 42 42 43 43 45 45 45 45 44 46 45 45 46 45 45 50 41 42
37 40 40 41 41 42 44 46 44 46 47 47 48 50 52 50 45 46 48 47 43 45
39 41 42 40 39 42 44 42 45 45 44 44 46 49 49 48 47 48 48 45 47 45
38 42 40 39 42 42 42 43 43 44 43 42 42 41 41 41 43 46 49 48 47 40
36 38 38 40 42 41 39 40 43 40 40 40 38 37 37 37 40 40 40 42 43 43
32 38 38 38 37 36 35 36 34 34 36 37 37 38 37 39 40 39 38 40 41 40
31 34 35 33 32 32 32 35 34 33 35 36 35 36 34 34 34 36 36 36 34 29

GFSNIL_850_spd_084.txt.gz
Wind_Speed
30 34 40 47 48 47 50 50 48 48 46 44 40 41 39 33 30 30 35 28 25 28
34 34 39 44 48 48 47 47 49 49 46 45 42 41 42 39 37 36 34 31 33 32
37 35 34 38 47 50 49 50 51 52 51 49 49 46 47 43 39 37 40 39 37 36
43 41 38 38 41 49 52 53 54 54 54 52 52 49 48 45 44 45 46 44 44 44
39 42 43 40 41 42 46 57 57 56 58 56 56 57 57 57 54 51 45 45 46 46
32 36 40 43 42 41 41 48 54 55 52 57 61 62 63 61 55 52 50 49 44 45
37 37 37 39 41 42 39 41 47 52 55 54 52 56 53 51 49 50 51 48 49 47
40 40 39 38 39 39 46 46 47 48 49 47 48 49 48 47 49 52 49 47 46 46
37 40 42 44 42 42 43 48 49 48 49 49 51 53 51 51 50 49 48 49 50 49
39 40 42 42 44 46 46 45 49 49 50 52 53 52 51 50 50 48 46 46 46 47
38 41 40 41 44 46 48 49 48 48 48 48 51 51 50 49 48 50 53 49 48 48
35 37 38 40 45 44 42 43 47 47 47 48 49 46 48 45 47 48 50 52 52 51
34 35 38 40 39 38 39 41 39 39 42 44 45 46 44 42 42 43 45 46 49 48
36 34 35 35 37 36 37 39 39 41 42 43 42 44 42 41 40 41 44 46 45 42

GFSNIL_850_spd_087.txt.gz
Wind_Speed
25 25 25 28 35 42 41 41 40 37 39 42 42 38 36 35 32 32 32 29 27 27
28 29 29 31 34 41 43 40 43 43 38 38 40 41 39 36 36 38 35 31 31 30
30 30 30 31 36 43 45 41 41 45 46 44 41 40 38 42 41 41 41 35 34 35
35 33 29 33 34 36 45 46 41 45 46 51 49 47 45 44 46 44 42 41 38 40
38 37 34 34 33 37 38 43 46 45 47 48 49 49 50 50 49 48 48 47 46 43
37 41 41 39 37 36 38 40 46 49 50 50 50 52 53 55 55 55 54 51 50 47
34 36 42 43 41 41 41 41 44 48 51 53 54 55 58 58 58 58 58 56 57 59
36 35 34 39 44 44 45 45 45 47 47 50 54 55 58 62 61 61 61 61 61 60
37 37 40 39 40 42 45 47 46 47 49 49 52 54 56 57 60 61 62 61 57 54
40 41 41 41 40 43 45 45 49 49 48 50 52 53 53 54 55 56 56 55 55 54
36 40 43 42 45 46 46 46 46 49 50 52 55 53 52 52 52 52 53 54 55 56
32 39 39 42 44 45 48 50 51 49 50 51 52 52 52 50 51 54 56 58 59 58
17 28 42 39 39 43 45 47 47 47 48 50 50 50 51 50 51 53 57 59 60 61
15 13 28 36 40 41 44 43 43 46 48 49 50 51 51 50 49 50 52 54 56 57

GFSNIL_850_spd_090.txt.gz
Wind_Speed
24 25 27 28 28 31 31 34 37 38 37 35 38 41 41 42 40 40 37 37 36 34
23 22 27 27 26 29 36 38 38 35 32 35 37 38 43 42 41 40 38 38 37 35
28 26 25 25 29 31 34 41 38 35 36 39 38 37 40 42 39 38 36 36 39 37
30 30 29 29 31 30 32 38 41 39 39 42 44 44 44 43 41 40 39 39 40 40
29 32 32 32 31 31 33 34 38 42 41 43 43 44 46 48 48 47 46 44 44 45
30 33 36 35 32 34 35 36 38 44 46 44 45 47 48 48 48 50 49 49 51 51
31 32 33 36 37 34 35 36 40 42 46 48 48 49 49 51 53 55 55 55 54 54
29 31 31 32 36 39 38 38 38 39 43 43 46 50 52 53 54 55 57 58 59 59
31 33 34 34 34 35 37 40 40 42 42 44 46 47 50 52 54 56 58 60 62 63
32 36 38 39 38 39 39 40 43 44 44 46 46 48 48 49 50 52 55 57 59 61
31 31 36 37 41 44 43 44 45 45 45 46 48 48 46 46 47 49 52 53 54 56
9 26 33 35 41 43 41 44 47 48 48 45 46 46 47 46 47 50 53 54 54 56
8 9 13 27 37 40 45 49 46 45 46 46 45 44 45 47 49 50 51 52 55 56
14 12 12 14 22 34 39 43 46 45 45 44 46 49 51 51 48 54 55 56 58 59

GFSNIL_850_spd_093.txt.gz
Wind_Speed
22 20 18 17 16 17 18 19 21 25 31 39 35 43 46 45 44 45 45 42 38 43
25 23 23 21 20 19 19 22 27 30 30 30 37 42 44 44 46 46 42 44 39 40
24 25 22 25 26 25 23 25 27 32 31 31 38 40 42 47 47 45 44 37 39 39
23 22 21 25 28 28 28 29 31 33 36 35 35 37 39 39 39 45 42 41 41 42
24 24 25 26 27 27 29 28 29 35 39 37 34 35 38 39 40 45 45 46 44 44
25 26 27 27 27 27 29 29 30 33 40 43 39 38 41 42 43 45 48 50 48 47
25 27 27 26 28 29 29 31 32 34 35 37 38 42 43 45 47 49 50 51 52 52
23 25 26 27 26 27 29 31 32 34 36 37 40 44 47 47 47 49 51 54 55 56
23 24 26 27 29 29 30 31 32 37 38 40 43 45 46 49 51 52 53 55 56 57
19 23 25 26 30 32 33 33 36 37 37 40 43 44 44 45 48 49 51 53 55 56
13 17 21 21 24 27 32 37 41 42 42 40 40 41 42 43 43 46 49 50 52 54
5 8 13 20 25 30 30 31 33 35 42 44 46 44 43 40 43 48 50 50 51 53
1 5 6 10 14 20 28 34 38 39 36 37 40 43 45 46 46 47 49 45 49 51
10 9 8 8 9 10 12 18 28 30 35 39 43 44 45 45 46 48 51 51 52 54

GFSNIL_850_spd_096.txt.gz
Wind_Speed
19 21 18 15 17 15 16 14 16 20 22 28 33 34 41 51 56 52 45 41 37 36
21 21 18 16 16 15 15 14 12 12 13 17 22 28 37 46 45 51 48 47 44 41
20 20 18 17 18 17 14 16 15 12 15 19 22 28 34 41 45 46 48 47 45 43
19 19 18 18 18 18 17 15 15 19 19 20 20 27 38 41 42 43 43 45 43 43
17 17 17 17 19 19 20 20 18 19 22 26 25 25 28 34 39 38 43 44 46 47
13 17 17 16 17 18 21 22 22 23 25 27 30 31 30 32 34 37 40 45 50 48
12 12 16 15 15 19 21 22 22 24 25 27 30 34 37 36 33 37 39 41 41 49
14 10 10 17 17 16 17 20 22 24 26 27 30 34 40 42 41 40 42 42 43 45
14 14 13 12 14 17 18 18 19 21 25 29 31 32 33 35 37 38 42 45 46 47
10 11 12 12 14 16 18 17 19 21 24 26 27 29 32 34 36 39 41 45 48 50
7 10 12 14 16 18 20 22 19 19 19 23 27 29 29 31 35 39 41 42 43 46
1 2 5 10 14 19 23 23 25 24 22 23 24 30 31 28 33 35 36 38 41 46
8 5 3 3 5 9 14 18 21 25 29 31 33 37 37 36 35 36 38 39 41 46
10 9 9 8 7 5 5 8 9 10 17 24 31 33 38 39 39 34 33 39 38 42

GFSNIL_850_spd_099.txt.gz
Wind_Speed
22 19 18 17 16 15 12 11 13 26 22 27 30 30 27 30 31 44 51 51 46 42
23 20 19 14 14 15 13 11 12 17 26 26 26 23 28 30 39 45 49 51 51 46
22 18 17 15 15 14 16 14 11 11 17 18 19 19 22 26 31 43 47 49 39 45
21 17 17 16 15 16 14 15 14 10 7 10 16 15 19 22 27 35 42 37 43 46
19 16 16 16 17 16 16 15 12 12 12 13 13 14 17 22 25 30 37 43 47 46
16 15 15 15 16 17 17 17 16 15 16 18 18 18 17 18 24 26 28 35 39 42
8 8 14 15 15 15 15 17 18 18 18 19 20 22 23 24 24 28 32 35 35 37
6 5 7 15 15 14 15 16 17 18 18 19 21 23 24 27 29 31 31 33 34 35
5 6 6 7 14 16 15 14 15 17 17 19 21 22 22 24 28 32 36 40 40 38
6 9 10 8 7 10 13 16 18 18 19 18 17 16 17 21 26 29 32 34 34 36
8 8 10 12 15 16 17 17 15 16 16 17 24 20 20 18 20 25 28 30 33 36
6 5 5 8 11 14 18 19 20 21 21 23 27 28 26 21 23 25 22 22 28 36
9 7 4 4 2 3 5 8 11 14 16 19 22 25 24 23 21 24 29 32 33 36
13 12 10 8 6 6 4 2 3 3 5 7 11 15 21 25 25 23 22 24 29 33

GFSNIL_850_spd_102.txt.gz
Wind_Speed
29 22 17 16 14 14 14 15 17 23 29 29 29 29 29 30 34 41 41 45 49 46
29 22 17 15 15 14 13 14 14 18 23 24 24 25 28 25 28 30 36 43 48 46
29 22 17 15 15 13 14 13 13 16 21 22 20 26 27 26 28 26 34 42 49 48
26 22 19 15 15 15 15 17 14 14 16 19 21 23 24 24 28 30 33 38 42 45
24 22 18 16 16 16 16 19 18 15 14 15 16 18 18 19 19 21 24 28 33 36
24 21 17 16 16 17 17 18 19 18 18 16 15 14 12 12 13 15 17 20 26 25
22 18 16 15 16 17 18 17 18 17 16 17 17 17 16 16 14 15 17 18 21 26
18 15 16 16 15 15 16 17 17 17 17 18 20 22 23 23 22 22 21 23 24 25
14 12 11 10 15 15 15 15 15 16 17 17 17 18 20 21 23 25 27 29 30 30
16 16 14 11 9 11 13 13 15 15 15 15 17 22 22 22 24 22 25 27 28 29
13 13 11 11 11 12 14 16 17 18 17 19 23 22 21 23 26 29 29 26 27 29
10 10 7 8 10 13 14 14 15 17 17 18 19 20 20 19 19 20 24 30 33 32
9 8 9 7 6 6 8 10 11 12 14 17 19 22 23 22 22 24 26 27 29 30
10 7 10 8 7 7 6 6 7 6 5 5 7 11 15 16 13 18 21 23 25 25

GFSNIL_850_spd_108.txt.gz
Wind_Speed
35 39 28 29 32 24 20 21 23 24 24 25 24 26 25 27 22 23 25 30 36 35
35 34 31 33 29 22 21 16 19 25 26 25 25 25 27 30 31 27 28 32 37 39
35 32 31 27 27 26 22 19 16 22 24 27 24 22 24 27 26 27 28 27 36 38
34 34 29 28 29 26 28 24 18 22 24 25 26 25 23 24 26 26 26 24 32 38
32 33 27 28 27 29 26 22 16 20 19 26 22 23 21 20 23 24 25 25 23 31
32 33 29 26 25 23 20 19 18 18 18 20 22 23 22 21 22 18 18 21 22 24
34 25 27 25 24 19 20 21 18 17 15 17 18 21 22 22 23 22 21 21 22 23
29 26 26 22 22 18 19 21 21 20 17 16 16 16 15 17 16 16 15 15 15 16
24 23 22 22 19 18 19 19 20 20 17 13 21 19 17 16 13 11 11 12 13 12
18 23 24 22 21 20 19 17 19 19 22 21 19 17 17 17 15 14 18 18 17 18
15 19 22 23 25 25 25 24 25 25 24 23 22 20 20 19 20 22 21 18 20 23
15 9 14 17 23 28 28 27 26 26 25 23 22 21 20 19 22 22 23 25 28 25
24 24 22 14 11 14 21 22 22 22 18 17 18 21 24 24 25 25 25 25 24 27
18 20 22 22 17 18 20 17 18 14 12 7 4 2 7 11 13 15 16 14 12 10

GFSNIL_850_spd_111.txt.gz
Wind_Speed
41 36 37 38 35 32 33 34 32 29 28 23 23 21 22 22 20 22 22 29 32 32
41 38 39 36 33 29 28 29 31 28 27 25 24 23 23 26 24 23 23 23 34 38
41 37 36 35 33 30 27 25 24 27 28 25 23 24 22 26 27 28 25 24 25 33
39 36 34 34 32 31 29 26 23 23 26 26 25 23 22 25 28 31 30 29 26 27
30 33 34 31 31 31 28 25 24 24 27 26 24 24 24 25 25 28 27 26 28 24
25 30 30 31 29 31 30 26 25 22 24 24 24 24 24 23 24 24 27 25 27 25
16 27 28 30 30 31 27 25 22 20 22 23 25 21 24 21 20 20 22 21 22 24
16 17 25 29 29 27 24 22 20 17 17 18 20 22 23 22 21 22 20 19 21 22
10 20 21 29 26 23 19 21 22 18 17 21 20 20 20 21 22 21 20 18 16 14
7 17 23 25 25 23 21 24 26 26 23 22 21 20 19 17 16 17 18 17 16 17
18 13 12 25 29 28 28 26 27 27 26 25 24 21 21 21 21 22 24 22 20 20
35 28 19 11 12 18 27 28 29 28 29 29 24 27 28 26 24 24 23 22 20 22
30 30 31 26 24 20 14 19 14 18 15 21 21 24 25 24 25 25 25 26 27 28
22 21 20 22 23 22 18 23 21 22 19 12 8 6 9 20 20 19 20 19 18 18

GFSNIL_850_spd_114.txt.gz
Wind_Speed
44 48 41 40 33 35 38 38 36 38 38 34 30 29 26 26 26 23 22 25 29 28
47 51 45 41 33 30 31 30 30 35 39 35 31 27 28 26 26 24 24 25 23 28
38 48 46 41 35 30 29 26 26 30 33 33 31 30 27 26 27 26 26 25 24 27
28 43 47 41 37 33 31 24 23 27 29 32 31 30 29 25 27 27 27 26 25 32
26 35 40 39 36 34 33 28 25 26 27 28 30 29 28 28 27 27 29 29 31 26
12 22 33 32 32 33 32 30 27 25 26 25 27 28 27 26 25 24 28 30 34 32
6 12 19 25 29 32 31 29 27 26 24 22 25 26 25 26 25 25 26 27 28 29
6 7 13 16 24 29 29 30 28 27 25 22 26 26 23 26 26 24 25 24 26 26
6 4 13 19 26 29 30 30 26 25 22 27 27 25 25 24 23 24 24 23 24 21
19 10 6 14 28 28 28 28 23 26 25 26 24 23 22 23 24 24 23 23 25 24
32 27 18 9 20 24 29 31 29 28 26 28 28 23 21 20 21 23 24 23 22 22
33 34 32 27 26 17 9 18 25 27 29 28 28 25 24 25 26 26 27 26 25 26
24 26 27 28 31 27 27 23 16 9 13 13 19 27 29 31 30 32 29 31 30 28
19 20 19 20 23 22 20 19 17 20 22 19 12 5 8 18 23 26 27 21 22 21

GFSNIL_850_spd_117.txt.gz
Wind_Speed
36 38 38 38 41 41 36 33 38 40 39 36 32 31 30 30 32 32 33 31 32 27
30 36 41 40 42 42 39 36 36 38 37 38 34 32 33 31 31 29 29 29 27 27
25 31 42 44 43 43 42 40 34 33 37 37 34 33 32 30 26 29 28 27 24 28
22 28 34 41 44 42 43 41 34 31 32 33 33 34 32 30 27 26 27 27 28 28
9 17 21 30 29 39 41 39 34 31 29 30 30 33 32 30 27 27 28 28 28 29
3 8 15 23 25 27 32 34 33 33 30 29 29 30 31 28 27 25 27 28 29 30
10 6 8 17 22 27 28 30 32 32 32 29 27 26 26 27 29 26 25 26 26 29
18 8 8 7 14 17 23 27 30 31 31 28 23 23 25 27 26 26 27 26 27 26
24 16 11 7 9 15 19 25 31 26 31 30 27 26 25 26 27 26 25 26 25 26
34 30 23 14 7 9 14 22 29 29 32 31 28 26 25 26 27 23 26 25 24 24
36 35 32 28 25 18 12 4 15 28 33 29 27 24 23 23 25 28 26 27 27 25
30 30 31 33 30 30 27 22 17 8 16 16 23 26 25 26 26 27 29 29 27 29
25 25 26 25 24 25 24 25 24 22 18 14 5 15 27 27 28 29 30 31 28 28
23 22 20 20 20 19 20 19 18 20 22 19 22 22 14 3 13 20 23 22 26 28

GFSNIL_850_spd_120.txt.gz
Wind_Speed
29 31 33 35 38 37 34 34 35 39 39 40 40 38 36 34 34 32 33 32 31 32
22 32 36 36 37 38 36 35 33 35 33 39 42 40 37 35 35 35 33 32 33 33
15 20 28 39 41 40 39 37 43 38 35 36 38 38 36 36 36 35 34 32 32 30
14 17 23 27 33 38 39 37 37 37 37 36 34 34 37 38 36 37 34 27 27 28
10 11 13 15 20 26 30 35 38 39 36 34 32 33 36 39 36 37 34 26 26 28
13 9 9 11 15 18 20 24 29 33 33 34 34 35 35 35 37 36 31 27 25 25
18 16 12 8 12 14 17 18 23 26 31 32 34 36 34 32 37 34 29 26 24 26
24 20 16 13 6 8 14 18 21 22 24 29 33 35 31 27 33 31 28 29 26 24
35 30 25 20 16 10 7 10 15 19 25 27 32 35 31 27 27 26 28 29 28 27
36 36 35 30 25 22 18 11 7 10 17 21 30 38 26 26 25 26 26 29 29 27
33 33 33 33 33 31 27 23 19 10 13 7 12 25 26 29 28 26 26 26 26 28
29 31 31 31 32 31 27 26 28 24 18 18 14 4 20 28 26 25 27 26 29 27
26 26 27 27 26 25 26 27 25 23 24 24 21 19 20 6 19 16 24 27 29 29
28 27 24 22 22 22 22 21 24 24 25 26 25 24 22 19 9 5 5 8 12 16

GFSNIL_850_spd_126.txt.gz
Wind_Speed
20 21 21 21 23 25 22 20 25 29 32 35 40 38 35 41 41 38 34 36 32 31
10 12 13 16 17 24 22 24 22 26 29 31 32 37 36 43 40 41 36 33 35 35
3 4 7 11 15 18 25 28 30 23 24 27 29 34 41 42 48 43 42 36 40 40
11 8 5 8 14 19 23 28 29 31 28 25 24 28 37 44 45 42 41 38 39 39
13 11 8 8 10 18 22 17 18 19 20 22 24 29 36 39 41 41 38 38 35 36
19 14 14 10 7 4 4 9 15 19 17 16 16 22 29 33 36 40 39 36 36 37
28 24 22 20 17 14 11 6 2 6 12 16 17 21 26 28 29 30 33 33 37 37
32 29 27 25 24 23 19 18 16 11 6 5 12 18 22 27 28 30 33 34 38 38
30 31 33 33 30 27 26 25 23 21 19 16 14 15 20 26 26 27 33 36 37 36
28 29 31 31 31 33 33 30 29 27 25 25 23 18 18 15 19 22 28 33 36 37
29 28 28 29 30 30 30 31 30 30 30 28 27 20 15 16 11 12 14 21 27 30
31 30 29 29 29 28 28 28 29 29 28 28 28 27 23 21 17 12 8 8 7 12
30 30 29 28 27 26 25 25 25 26 28 27 28 27 26 24 21 18 18 16 13 12
28 28 28 27 27 26 25 24 25 25 26 27 28 27 26 26 25 25 22 20 19 18

GFSNIL_850_spd_129.txt.gz
Wind_Speed
13 12 13 17 23 22 12 14 16 15 16 25 30 32 36 33 32 33 35 35 37 39
14 12 15 22 22 27 24 21 17 12 13 16 19 25 28 35 36 36 37 34 32 34
11 10 9 5 5 8 14 18 16 19 17 17 18 22 22 30 37 37 40 38 35 37
18 18 10 8 6 3 2 2 6 8 13 15 18 19 20 24 33 40 42 39 44 42
24 23 21 22 19 18 14 9 6 6 8 13 16 15 19 24 29 35 39 44 45 45
33 30 29 27 23 18 16 13 9 10 11 14 16 17 21 29 28 31 37 39 42 41
37 38 35 30 27 25 21 20 18 14 11 9 10 15 20 25 27 30 34 35 39 36
36 34 32 30 28 25 25 23 21 18 19 19 17 15 15 15 20 24 28 29 25 34
33 32 30 26 29 29 29 28 27 27 26 26 22 20 15 11 11 12 18 23 27 25
30 28 27 26 28 29 29 29 31 30 28 28 27 25 24 22 18 15 14 15 17 22
28 27 27 28 29 28 27 29 29 30 29 29 27 26 25 23 22 21 21 19 19 17
29 28 28 28 27 27 27 27 28 29 30 30 29 27 25 25 25 24 22 21 21 21
27 27 26 26 26 23 23 24 25 25 28 28 30 30 29 28 25 23 23 23 22 22
25 25 25 24 24 23 22 23 24 25 25 27 29 29 29 28 27 26 26 26 27 27

GFSNIL_850_spd_132.txt.gz
Wind_Speed
11 11 13 8 19 37 12 27 32 11 18 22 23 29 27 29 27 30 31 28 34 37
15 13 8 9 11 10 13 14 27 15 10 14 18 27 29 31 29 33 33 31 32 37
24 27 21 15 11 10 7 10 11 11 13 13 14 15 15 21 24 29 32 36 33 38
34 32 30 27 23 18 15 6 12 9 12 20 16 15 13 15 15 21 29 35 37 39
38 37 33 35 29 21 22 14 11 8 3 8 15 13 17 16 18 22 24 27 35 38
42 40 38 34 32 29 26 27 22 18 9 5 4 7 9 12 17 17 19 21 24 28
41 41 39 38 36 32 29 28 28 26 24 22 20 17 13 9 10 14 17 21 23 20
37 37 37 39 37 36 35 32 32 29 29 27 28 30 24 21 18 15 14 14 17 17
39 36 39 37 35 36 36 35 30 29 29 30 29 29 28 21 23 22 20 16 17 19
35 39 37 36 36 36 36 34 34 34 31 31 29 26 25 25 22 23 21 21 19 20
38 38 36 35 37 37 36 34 34 34 33 31 31 28 25 25 26 27 27 27 27 26
37 35 34 35 34 34 32 32 32 31 31 32 31 31 29 27 27 26 27 27 27 28
33 35 34 33 31 28 29 29 28 28 30 30 30 30 31 31 31 30 29 28 28 29
34 34 33 31 30 29 28 26 26 26 26 28 29 29 29 30 32 31 30 30 31 30

GFSNIL_850_spd_135.txt.gz
Wind_Speed
12 14 12 21 23 27 20 20 12 26 19 24 36 37 37 33 34 32 27 25 34 34
7 5 9 13 20 5 18 14 24 16 6 16 19 14 40 36 30 31 25 23 24 29
16 13 15 19 17 12 13 10 15 20 1 7 6 44 13 9 11 19 19 22 27 31
24 24 33 33 28 23 17 16 8 9 6 3 8 6 6 7 7 10 14 18 20 22
29 33 50 47 44 37 29 28 29 17 5 4 2 6 2 2 6 8 11 16 16 21
43 49 48 46 42 39 37 33 27 25 22 17 17 11 8 7 7 9 9 11 12 15
47 48 50 47 43 39 37 36 31 29 29 25 22 20 17 13 13 13 12 13 11 11
44 44 47 48 48 45 43 43 40 34 28 28 28 25 21 19 18 16 16 16 15 16
38 41 43 42 43 44 43 42 41 38 35 34 33 28 26 25 25 23 20 19 19 17
37 39 39 39 40 39 39 37 36 34 34 33 31 28 26 24 22 24 24 21 22 23
38 37 36 38 39 38 36 35 37 36 34 32 32 28 27 27 27 25 25 25 26 27
36 36 36 36 36 36 34 34 35 34 33 34 33 32 30 29 28 27 27 27 28 28
33 34 35 35 35 33 33 32 32 33 34 33 33 32 32 32 30 30 29 27 26 27
31 33 32 32 32 32 32 32 33 33 34 34 33 32 31 30 30 30 30 31 31 31

GFSNIL_850_spd_138.txt.gz
Wind_Speed
15 17 19 15 21 16 15 16 14 24 22 26 15 6 35 43 45 47 45 44 42 42
15 8 7 9 8 13 21 18 16 10 17 15 7 14 24 26 33 31 36 40 44 38
22 16 10 7 12 15 15 17 15 9 8 11 12 23 19 13 4 17 18 18 17 42
31 26 26 23 23 30 32 30 22 19 15 8 5 8 9 16 15 9 11 10 10 7
41 35 35 29 29 37 40 35 34 32 27 29 25 17 15 8 12 8 11 13 12 5
40 41 38 36 33 46 47 47 44 39 34 30 29 27 22 21 25 19 17 16 12 11
39 41 42 45 49 51 48 47 42 43 40 37 34 32 26 25 25 26 24 21 18 16
33 37 42 46 48 48 49 47 44 42 41 40 37 35 28 25 24 24 25 24 24 23
37 39 40 42 44 44 45 43 40 41 41 38 37 33 30 29 29 28 27 27 24 22
36 38 39 39 40 42 41 41 42 42 39 38 36 34 33 32 30 29 29 27 27 25
34 35 36 37 38 38 38 40 39 38 36 34 36 33 32 30 29 29 29 30 28 27
33 32 33 35 35 35 35 36 38 36 34 34 34 33 31 28 27 27 27 27 28 28
30 31 32 32 33 33 34 35 34 34 36 33 33 32 30 29 29 26 26 25 26 27
26 29 29 30 30 31 32 33 33 33 32 31 29 29 28 26 25 26 25 26 27 27